This is the latest recevied weather packets stored in our database for station/object W4UWO. If no packets are shown the sender has not sent any weather packets the latest 10 day(s).
| Time | Temp. | Humidity | Pressure | Rain* | Wind** | Luminosity | Snow |
|---|---|---|---|---|---|---|---|
| 1788053276 | 26.67° C | 70% | 1019.3 hPa | 0 mm | - | 0 W/m² | - |
| 1788052972 | 26.67° C | 69% | 1019 hPa | 0 mm | - | 0 W/m² | - |
| 1788052671 | 27.22° C | 68% | 1019 hPa | 0 mm | - | 0 W/m² | - |
| 1788052364 | 27.22° C | 67% | 1018.9 hPa | 0 mm | - | 0 W/m² | - |
| 1788052064 | 27.78° C | 66% | 1018.9 hPa | 0 mm | - | 0 W/m² | - |
| 1788051759 | 28.33° C | 64% | 1019.1 hPa | 0 mm | - | 0 W/m² | - |
| 1788051458 | 28.33° C | 62% | 1019 hPa | 0 mm | - | 0 W/m² | - |
| 1788051157 | 28.33° C | 61% | 1019.1 hPa | 0 mm | - | 0 W/m² | - |
| 1788050857 | 28.33° C | 60% | 1019 hPa | 0 mm | - | 0 W/m² | - |
| 1788050552 | 28.89° C | 58% | 1019 hPa | 0 mm | - | 0 W/m² | - |
| 1788050246 | 28.89° C | 55% | 1018.9 hPa | 0 mm | - | 0 W/m² | - |
| 1788049941 | 29.44° C | 54% | 1019 hPa | 0 mm | - | 1 W/m² | - |
| 1788049638 | 30° C | 52% | 1019 hPa | 0 mm | - | 2 W/m² | - |
| 1788049335 | 30° C | 51% | 1018.7 hPa | 0 mm | - | 3 W/m² | - |
| 1788049029 | 30° C | 51% | 1018.8 hPa | 0 mm | - | 5 W/m² | - |
| 1788048725 | 30° C | 50% | 1018.7 hPa | 0 mm | - | 8 W/m² | - |
| 1788048423 | 30.56° C | 49% | 1018.8 hPa | 0 mm | - | 12 W/m² | - |
| 1788048123 | 30.56° C | 48% | 1018.8 hPa | 0 mm | - | 16 W/m² | - |
| 1788047820 | 31.11° C | 47% | 1018.9 hPa | 0 mm | - | 22 W/m² | - |
| 1788047520 | 31.11° C | 46% | 1018.9 hPa | 0 mm | - | 23 W/m² | - |
| 1788047215 | 31.67° C | 46% | 1018.9 hPa | 0 mm | - | 25 W/m² | - |
| 1788046915 | 31.67° C | 44% | 1018.8 hPa | 0 mm | - | 29 W/m² | - |
| 1788046614 | 31.67° C | 45% | 1018.7 hPa | 0 mm | - | 41 W/m² | - |
| 1788046309 | 32.22° C | 44% | 1018.6 hPa | 0 mm | - | 51 W/m² | - |
| 1788046007 | 31.67° C | 44% | 1018.6 hPa | 0 mm | - | 60 W/m² | - |
* Rain latest hour (hover to see other rain measurements)
** Current wind speed in m/s (hover to see current wind gust speed)